Skip Page Navigation
NASA JPL Caltech
NASA Logo - Jet Propulsion Laboratory + View the NASA Portal
+ Near-Earth Object (NEO) Program
Search JPL
JPL Home Earth Solar System Stars & Galaxies Technology
JPL Solar System Dynamics
BODIES ORBITS EPHEMERIDES TOOLS PHYSICAL DATA DISCOVERY FAQ SITE MAP
JPL Small-Body Database Browser
Search: [ help ]  
19306 Voves (1996 TN12)
Classification: Main-belt Asteroid          SPK-ID: 2019306
Ephemeris | Orbit Diagram | Orbital Elements | Physical Parameters | Discovery Circumstances | Close-Approach Data ]

[ show orbit diagram ]
Orbital Elements at Epoch 2456800.5 (2014-May-23.0) TDB
Reference: JPL 3 (heliocentric ecliptic J2000)
 Element Value Uncertainty (1-sigma)   Units 
e .1656104822699597 5.5231e-08  
a 2.355983219944727 1.5028e-08 AU
q 1.965807702669749 1.2669e-07 AU
i 1.459638884405934 5.6982e-06 deg
node 240.8764677607836 0.0002422 deg
peri 230.4429942407662 0.00024319 deg
M 248.2384514517468 1.9389e-05 deg
tp 2457210.559262406296
(2015-Jul-07.05926241)
7.192e-05 JED
period 1320.859780343243
3.62
1.2638e-05
3.46e-08
d
yr
n .2725497477911313 2.6077e-09 deg/d
Q 2.746158737219706 1.7517e-08 AU
  Orbit Determination Parameters
   # obs. used (total)      765  
   data-arc span      7599 days (20.80 yr)  
   first obs. used      1992-09-22  
   last obs. used      2013-07-13  
   planetary ephem.      DE431  
   SB-pert. ephem.      SB431-BIG16  
   condition code      0  
   fit RMS      .5425  
   data source      ORB  
   producer      Otto Matic  
   solution date      2014-Jun-09 22:22:15  

Additional Information
 Earth MOID = .982524 AU 
 T_jup = 3.535 
[ show covariance matrix ]

Ephemeris | Orbit Diagram | Orbital Elements | Physical Parameters | Discovery Circumstances | Close-Approach Data ]

Physical Parameter Table
Parameter Symbol Value Units Sigma Reference Notes
absolute magnitude H 14.9 mag n/a MPO266057  

19306 Voves           Discovered 1996 Oct. 12 at Santa Lucia Stroncone.
Voves is a French town, located in the Beauce natural region, Eure-et-Loire department. There are examples of megalithic monuments (dolmens), old windmills and modern wind turbines. Voves is twinned with the Italian town of Stroncone.
NOTE: some special characters may not display properly (any characters within {} are an attempt to place the proper accent above a character)
Reference: 20130127/MPCPages.arcLast Updated: 2013-01-31

[ show close-approach data ]
Alternate Designations
 1996 TN12 = 1992 SM18 
Ephemeris | Orbit Diagram | Orbital Elements | Physical Parameters | Discovery Circumstances | Close-Approach Data ]
ABOUT SSD CREDITS/AWARDS PRIVACY/COPYRIGHT GLOSSARY LINKS
FirstGov 2014-Jul-31 11:29 UT
(server date/time)  
NASA Home Page
Site Manager:   Donald K. Yeomans
Webmaster  Alan B. Chamberlin